Theta_e
326 326 325 324 325 325 324 324 324 323 323 324 324 325 325 326 326 327 327 328 328 328 328 328 327 327 326 326 326 326 325 324 323 323 322 321 320 320 319 319 317 317
326 325 323 324 323 323 324 325 324 324 324 324 324 325 325 325 325 326 327 327 327 327 327 327 327 327 327 326 325 324 323 323 322 322 321 320 320 319 319 318 316 316
324 324 324 323 323 323 323 324 324 324 324 324 324 325 324 324 325 325 326 327 326 326 326 327 326 325 325 325 324 323 321 321 321 321 321 320 319 318 318 317 315 312
322 323 324 323 323 323 323 322 323 324 324 323 323 324 324 323 323 323 324 321 326 325 325 325 325 324 324 324 323 322 321 320 320 319 319 318 318 317 316 315 313 310
319 320 322 322 322 322 322 322 322 323 323 323 322 322 322 321 321 322 323 323 324 324 323 323 324 322 322 322 322 321 320 319 318 317 316 314 313 314 314 313 310 307
316 318 318 319 320 320 321 321 321 322 322 322 323 321 322 320 321 321 321 322 322 322 321 321 321 321 320 320 319 319 317 316 314 316 314 311 310 310 310 309 307 304
314 315 316 317 316 318 319 320 321 320 322 322 321 320 320 318 318 320 321 320 320 319 319 319 319 318 318 318 317 315 314 313 311 313 312 309 308 306 306 306 304 302
312 312 313 314 314 315 316 318 318 319 319 316 318 317 318 318 317 317 317 318 318 318 317 317 317 318 316 316 314 313 311 312 311 310 308 305 304 303 303 304 302 300
308 309 309 309 310 310 311 312 312 310 311 311 312 311 311 316 316 315 315 315 315 315 316 315 316 316 314 315 314 313 310 309 309 308 306 303 302 301 301 301 299 298
304 303 303 303 305 307 308 307 309 309 309 309 309 310 313 312 314 316 315 314 314 314 314 314 314 314 313 313 314 312 309 308 307 306 305 303 302 301 300 299 298 296
302 302 303 304 305 305 308 308 308 308 307 310 309 311 313 313 312 313 314 314 314 313 313 313 313 313 312 312 311 310 309 308 306 305 303 302 301 301 297 299 297 296
299 299 302 303 305 306 305 307 309 310 311 310 311 315 312 312 313 311 311 312 312 312 312 312 312 312 311 311 310 308 307 307 306 305 303 301 300 299 298 298 297 295
295 296 297 299 302 305 305 306 307 306 308 309 307 309 308 308 307 309 307 310 310 310 310 310 310 310 310 310 308 307 306 305 303 302 300 299 298 297 296 297 296 295
299 299 300 302 302 302 303 302 302 303 305 304 301 306 306 306 306 307 306 305 307 307 308 307 307 307 308 308 307 306 303 300 299 298 297 296 295 295 295 295 294 293
299 298 300 300 300 300 299 299 298 296 296 296 296 297 300 302 304 304 302 301 300 301 303 303 305 305 305 303 302 300 302 301 299 297 296 294 293 293 294 293 293 292
298 297 298 296 297 298 297 295 294 293 293 294 294 294 294 294 295 296 296 297 297 296 296 299 301 302 298 298 299 301 300 299 297 296 295 294 293 292 292 292 292 291
296 295 293 293 294 292 292 292 293 292 292 292 292 292 293 292 293 294 294 295 296 296 295 295 297 298 295 298 298 298 299 297 295 294 294 293 293 292 291 291 290 290
294 293 292 291 291 291 291 290 291 291 291 291 291 292 291 292 291 293 293 292 293 293 294 294 294 294 296 297 297 297 296 295 295 294 293 293 293 293 292 291 290 288
292 291 290 290 290 290 290 290 290 290 290 290 290 290 291 290 290 291 291 291 291 293 293 292 292 293 295 296 296 297 296 295 295 294 294 293 293 292 291 290 289 287
291 291 290 290 290 290 290 290 289 289 289 289 290 289 289 289 290 289 290 290 290 291 291 290 291 291 295 295 296 296 296 296 294 294 294 293 292 292 291 289 288 287
291 290 290 290 289 289 289 289 289 289 289 289 288 288 288 288 288 289 289 289 289 290 290 290 291 292 294 295 295 295 296 295 293 293 292 291 291 290 289 288 287 286
290 289 289 289 288 288 288 288 289 288 288 288 289 289 289 289 289 289 288 288 289 289 289 290 289 292 293 294 295 295 295 291 291 291 290 290 289 288 287 287 286 285
289 289 289 288 287 288 288 288 288 288 288 288 288 288 288 288 288 289 288 288 288 288 288 288 288 290 292 293 294 295 293 290 289 289 289 288 288 287 286 285 284 283
289 289 289 287 287 288 288 287 287 287 287 287 287 287 288 288 288 287 287 287 287 288 288 288 288 288 290 292 293 294 291 289 288 288 287 287 286 285 284 284 283 283
288 288 288 287 287 287 287 287 287 287 287 287 288 287 287 287 287 287 287 287 287 287 288 288 287 287 289 291 292 293 290 288 288 288 287 286 285 284 283 283 282 282
289 288 288 287 287 288 287 287 287 287 287 287 288 287 287 287 287 287 286 287 286 287 287 287 287 286 287 291 291 292 291 288 288 288 287 286 285 284 282 282 282 282
Wind_Speed
11 10 12 11 11 10 9 10 10 11 10 10 11 12 12 11 11 13 13 12 12 13 13 13 12 11 9 9 10 9 9 11 10 9 10 10 10 11 11 11 10 10
12 11 9 9 10 10 11 11 11 11 12 11 11 10 10 10 11 12 12 13 13 13 12 12 12 12 11 9 9 10 9 10 11 8 10 11 10 11 11 11 10 8
10 11 11 11 11 10 11 10 10 10 10 11 10 10 10 10 11 11 11 12 12 12 12 11 11 12 12 10 9 9 9 9 10 9 10 11 10 10 9 10 8 8
9 10 11 12 11 11 9 9 9 9 8 9 10 8 8 8 9 11 11 11 11 11 11 10 10 10 11 11 10 8 8 9 9 9 10 8 10 10 9 8 8 6
7 8 8 8 8 8 8 10 11 9 9 9 7 8 8 8 8 9 9 10 10 10 9 11 10 9 10 10 11 10 9 8 7 8 9 8 7 8 8 9 8 8
5 6 6 6 7 7 8 10 10 9 9 8 9 7 8 8 8 9 10 11 10 10 10 9 10 9 8 9 9 9 8 8 8 9 9 8 7 6 6 7 8 9
7 6 7 6 6 7 8 9 9 9 9 8 6 8 7 8 8 10 10 10 10 10 10 9 10 9 9 9 9 9 8 9 9 10 11 8 9 8 6 7 8 9
6 5 5 5 6 6 7 7 6 7 7 5 6 6 7 7 7 7 7 8 9 9 9 9 9 10 10 10 10 10 9 8 10 10 9 9 9 10 9 8 8 9
5 5 5 5 6 6 6 6 5 5 4 5 5 5 4 6 6 7 7 7 8 9 10 10 10 11 10 11 11 12 11 9 9 10 10 10 9 9 9 8 9 9
6 6 5 5 5 5 6 5 5 5 4 3 4 4 6 5 6 7 8 9 10 10 10 11 11 11 11 11 13 13 12 12 10 9 9 11 12 11 10 9 10 10
7 6 6 7 7 5 6 5 5 5 4 4 4 4 5 6 6 6 8 9 10 10 11 11 12 12 12 11 10 10 12 14 13 11 11 11 11 12 12 12 12 12
6 5 5 5 5 5 5 5 5 5 6 5 5 7 7 7 8 8 8 9 9 10 10 11 11 11 12 12 11 10 10 11 13 14 13 11 10 10 10 10 11 11
5 4 4 4 4 5 5 5 5 5 5 6 5 6 5 5 5 6 6 7 8 8 9 9 9 9 10 10 10 11 12 11 10 10 11 10 10 10 10 10 10 10
4 4 4 5 5 5 5 5 4 4 5 5 5 6 6 7 7 7 7 7 7 7 7 7 7 7 7 8 9 10 8 7 8 9 9 9 8 9 9 9 9 10
4 3 3 4 5 5 5 5 5 4 4 4 4 4 4 5 5 6 6 6 5 5 5 6 7 8 8 8 7 6 9 14 13 11 11 10 9 8 9 9 9 9
4 4 3 3 4 4 5 5 5 4 4 4 4 4 4 4 4 4 4 5 5 4 4 5 5 5 7 13 14 12 9 7 8 10 11 11 11 10 8 8 9 9
2 3 2 3 3 4 4 4 4 4 3 4 4 3 4 4 4 4 4 5 6 6 6 5 5 5 10 10 10 11 10 9 10 9 9 11 11 12 12 10 9 9
2 3 3 3 3 4 3 3 2 2 3 3 3 3 3 1 3 4 4 4 4 4 5 6 6 7 10 11 12 12 11 9 9 9 10 10 10 11 11 10 10 8
2 2 3 3 3 2 1 1 1 1 2 2 3 2 0 2 3 2 3 3 3 4 5 4 4 7 11 13 14 15 14 10 7 9 11 10 10 10 10 10 9 8
2 1 2 1 1 0 0 0 0 2 1 1 1 1 2 3 2 3 2 3 4 4 4 4 4 6 10 11 13 15 15 12 7 9 9 9 10 10 9 10 10 10
2 2 2 1 1 0 0 0 1 1 1 1 1 3 3 3 3 3 3 3 3 3 4 4 4 7 12 13 13 13 13 9 5 5 6 6 6 7 8 9 9 9
3 3 2 2 2 1 1 1 1 1 2 1 1 1 0 1 1 2 3 3 2 3 4 5 4 8 11 12 13 12 12 5 5 6 6 6 6 7 7 7 8 9
3 3 2 2 2 2 2 2 2 1 1 1 1 1 1 1 1 0 0 1 1 2 3 3 3 5 9 10 10 12 9 5 6 5 6 7 7 7 7 7 8 9
3 3 3 3 3 3 3 2 2 1 2 2 2 2 1 1 1 1 1 2 3 2 1 1 0 1 4 5 8 10 8 5 4 5 5 6 5 6 7 7 9 14
2 2 3 3 3 3 2 2 2 2 1 2 2 2 2 2 2 2 1 1 1 2 2 2 2 2 5 6 8 9 7 4 5 5 6 6 5 6 5 6 6 10
1 2 2 2 2 1 1 2 2 2 1 1 1 2 2 2 2 2 1 1 1 1 1 1 2 2 4 7 8 9 10 5 4 6 7 6 5 6 6 5 6 6
Wind_Direction
217 212 218 219 222 219 213 212 213 216 215 209 210 211 211 211 200 206 209 209 212 215 217 217 213 212 205 198 197 196 194 195 191 185 187 187 197 194 198 197 191 186
225 224 220 220 224 219 221 215 215 215 219 216 214 209 208 203 204 201 206 210 212 215 214 213 211 211 208 202 195 194 192 190 191 185 189 192 194 193 195 192 190 178
225 226 226 226 226 225 222 221 220 218 218 218 215 207 206 200 200 202 204 208 213 214 213 211 206 204 205 202 198 194 190 189 190 187 190 193 188 188 190 184 183 176
228 225 227 229 229 229 224 221 223 224 220 218 216 207 200 194 194 196 200 199 209 211 211 210 209 201 202 200 197 199 193 193 189 180 188 188 186 179 177 177 179 168
229 233 231 229 228 228 224 227 229 227 226 226 217 202 198 187 185 190 194 197 204 210 205 207 205 199 194 194 192 195 192 189 180 176 179 182 179 175 173 169 169 162
248 240 239 234 231 226 227 230 231 227 228 224 219 199 198 187 186 188 190 195 200 204 206 204 203 199 190 187 186 188 181 181 178 175 176 173 168 165 160 163 154 155
246 246 247 245 244 235 235 234 232 230 229 225 206 207 188 187 186 190 190 191 191 197 200 199 198 194 190 188 188 187 184 179 175 180 175 171 160 159 158 160 158 155
252 250 251 251 250 250 248 247 243 234 230 219 213 208 192 191 186 181 181 184 190 193 196 197 197 195 189 187 185 183 180 174 175 175 170 160 158 157 161 163 154 151
257 256 255 254 253 256 260 260 262 260 242 215 214 207 206 194 185 179 180 186 194 196 196 199 199 197 193 191 188 182 177 174 172 171 166 161 160 162 163 156 152 155
247 247 254 252 250 248 251 257 262 264 258 230 216 204 198 202 193 190 187 190 197 201 202 200 201 197 193 195 191 184 174 171 170 170 169 169 167 164 163 164 161 155
242 239 240 244 244 242 245 248 252 253 253 243 217 220 216 201 207 205 204 203 205 203 204 205 202 197 194 192 190 186 179 170 168 169 173 175 172 169 168 167 168 168
246 245 245 253 261 263 258 252 251 245 239 237 226 230 218 217 211 207 207 210 211 210 209 208 202 197 193 190 184 178 180 181 175 169 170 171 169 167 167 169 168 166
276 274 277 272 272 272 269 257 245 241 236 229 212 214 213 221 224 217 216 215 217 215 215 209 205 199 195 191 183 178 175 174 175 169 162 162 164 166 169 170 169 164
297 300 302 297 294 292 289 282 278 264 251 249 234 229 216 207 209 216 220 216 219 213 211 204 200 200 199 193 182 174 168 170 163 156 152 152 157 163 165 164 161 165
281 271 262 272 286 292 293 292 282 276 278 270 257 251 246 232 219 210 213 222 229 217 207 199 197 196 190 182 176 185 182 172 169 162 155 152 154 159 163 160 160 167
275 274 270 271 268 260 263 270 276 278 273 266 256 250 248 243 235 224 206 209 216 224 214 202 206 204 202 191 179 172 172 174 163 161 156 154 154 156 159 164 168 170
286 292 307 291 274 284 281 268 261 264 263 261 261 259 246 239 217 218 215 208 200 195 201 206 209 202 193 196 195 175 166 167 165 160 155 156 161 162 167 172 177 176
262 282 282 273 282 265 271 281 281 271 262 259 256 250 250 224 215 227 227 216 207 202 201 199 201 196 192 187 180 175 173 167 161 158 162 164 169 172 170 170 172 170
211 237 259 277 279 294 295 312 229 249 251 246 250 270 158 208 238 233 231 212 192 200 211 211 214 203 193 182 176 172 172 169 170 168 167 172 175 176 171 168 166 165
188 195 256 270 260 211 152 193 210 250 261 248 223 176 208 231 225 220 217 203 205 206 209 200 200 194 190 188 184 181 177 172 172 172 174 172 175 173 170 168 168 168
192 196 210 196 167 147 139 136 221 239 210 222 187 208 211 219 221 215 218 208 207 195 189 200 209 192 186 186 185 182 178 170 162 156 150 155 165 170 166 167 166 169
199 207 198 175 156 154 175 212 223 209 216 197 165 178 174 184 218 203 225 226 209 184 184 206 209 195 197 192 188 184 169 146 147 149 153 157 164 166 161 162 165 168
203 203 204 183 173 176 205 211 201 210 188 148 165 173 195 199 222 197 172 194 209 215 209 216 206 204 193 187 180 168 158 157 153 153 161 169 176 168 161 161 168 172
205 194 196 189 190 215 215 207 187 172 176 166 179 186 209 214 163 117 115 152 168 183 172 192 271 218 194 184 174 171 166 161 158 159 172 176 168 162 162 170 177 178
203 198 193 190 211 230 203 194 188 186 182 155 154 146 154 135 131 130 108 109 136 157 137 148 137 182 191 183 179 179 171 165 165 172 177 186 165 167 170 168 174 179
190 190 192 192 211 190 152 168 155 119 113 131 106 118 123 129 129 122 130 104 120 142 156 152 136 149 197 198 196 192 183 174 179 178 195 183 172 169 168 183 179 181